| time (UTC) | temp C | wind direction | speed KPH | gust KPH | rain 1hr cm | rain 24hr cm | rain mn cm | humidity % | barometer mb |
| 20260502213008 | 18 | 306 | 9.7 | 22.5 | 0.00 | 0.00 | 0.00 | 33 | 1012.0 |
| 20260502212503 | 18 | 278 | 3.2 | 14.5 | 0.00 | 0.00 | 0.00 | 36 | 1012.0 |
| 20260502212002 | 18 | 302 | 4.8 | 11.3 | 0.00 | 0.00 | 0.00 | 34 | 1012.1 |
| 20260502211524 | 18 | 295 | 4.8 | 12.9 | 0.00 | 0.00 | 0.00 | 34 | 1012.2 |
| 20260502211007 | 18 | 301 | 3.2 | 19.3 | 0.00 | 0.00 | 0.00 | 34 | 1012.3 |
| 20260502210507 | 18 | 288 | 6.4 | 19.3 | 0.00 | 0.00 | 0.00 | 36 | 1012.4 |
| 20260502210028 | 18 | 281 | 4.8 | 14.5 | 0.00 | 0.00 | 0.00 | 36 | 1012.4 |
| 20260502205509 | 18 | 277 | 6.4 | 14.5 | 0.00 | 0.00 | 0.00 | 36 | 1012.5 |
| 20260502205006 | 18 | 266 | 6.4 | 14.5 | 0.00 | 0.00 | 0.00 | 35 | 1012.6 |
| 20260502204522 | 17 | 225 | 4.8 | 14.5 | 0.00 | 0.00 | 0.00 | 35 | 1012.7 |
| 20260502204008 | 17 | 255 | 3.2 | 14.5 | 0.00 | 0.00 | 0.00 | 34 | 1012.9 |
| 20260502203502 | 17 | 335 | 3.2 | 14.5 | 0.00 | 0.00 | 0.00 | 36 | 1013.0 |
| 20260502203008 | 17 | 281 | 6.4 | 17.7 | 0.00 | 0.00 | 0.00 | 38 | 1013.1 |
| 20260502202503 | 17 | 290 | 6.4 | 20.9 | 0.00 | 0.00 | 0.00 | 37 | 1013.2 |
| 20260502202009 | 17 | 281 | 6.4 | 20.9 | 0.00 | 0.00 | 0.00 | 35 | 1013.3 |
| 20260502201517 | 17 | 327 | 4.8 | 19.3 | 0.00 | 0.00 | 0.00 | 37 | 1013.5 |
| 20260502201010 | 17 | 231 | 3.2 | 19.3 | 0.00 | 0.00 | 0.00 | 33 | 1013.5 |
| 20260502200506 | 17 | 291 | 6.4 | 19.3 | 0.00 | 0.00 | 0.00 | 36 | 1013.6 |
| 20260502200019 | 17 | 248 | 3.2 | 11.3 | 0.00 | 0.00 | 0.00 | 35 | 1013.7 |
| 20260502195509 | 16 | 295 | 3.2 | 17.7 | 0.00 | 0.00 | 0.00 | 36 | 1013.9 |
| 20260502195006 | 17 | 303 | 8.0 | 17.7 | 0.00 | 0.00 | 0.00 | 39 | 1014.0 |
| 20260502194521 | 17 | 258 | 3.2 | 14.5 | 0.00 | 0.00 | 0.00 | 35 | 1014.0 |
| 20260502194005 | 16 | 207 | 3.2 | 24.1 | 0.00 | 0.00 | 0.00 | 36 | 1014.1 |
| 20260502193512 | 16 | 242 | 8.0 | 24.1 | 0.00 | 0.00 | 0.00 | 36 | 1014.1 |
| 20260502193025 | 16 | 274 | 4.8 | 14.5 | 0.00 | 0.00 | 0.00 | 34 | 1014.3 |
| 20260502192508 | 16 | 296 | 3.2 | 9.7 | 0.00 | 0.00 | 0.00 | 38 | 1014.4 |
| 20260502192010 | 16 | 321 | 3.2 | 9.7 | 0.00 | 0.00 | 0.00 | 35 | 1014.4 |
| 20260502191531 | 16 | 316 | 4.8 | 20.9 | 0.00 | 0.00 | 0.00 | 35 | 1014.5 |
| 20260502191003 | 16 | 276 | 6.4 | 20.9 | 0.00 | 0.00 | 0.00 | 41 | 1014.7 |
| 20260502190507 | 16 | 326 | 8.0 | 17.7 | 0.00 | 0.00 | 0.00 | 42 | 1014.7 |
| 20260502190022 | 16 | 285 | 8.0 | 16.1 | 0.00 | 0.00 | 0.00 | 37 | 1014.9 |
| 20260502185508 | 15 | 307 | 3.2 | 9.7 | 0.00 | 0.00 | 0.00 | 37 | 1015.0 |
| 20260502185009 | 15 | 290 | 4.8 | 16.1 | 0.00 | 0.00 | 0.00 | 38 | 1015.0 |
| 20260502184521 | 15 | 290 | 4.8 | 16.1 | 0.00 | 0.00 | 0.00 | 38 | 1015.1 |
| 20260502184014 | 15 | 286 | 8.0 | 14.5 | 0.00 | 0.00 | 0.00 | 39 | 1015.3 |
| 20260502183507 | 15 | 276 | 3.2 | 12.9 | 0.00 | 0.00 | 0.00 | 35 | 1015.3 |
| 20260502183024 | 15 | 304 | 4.8 | 19.3 | 0.00 | 0.00 | 0.00 | 39 | 1015.4 |
| 20260502182510 | 15 | 349 | 3.2 | 19.3 | 0.00 | 0.00 | 0.00 | 38 | 1015.6 |
| 20260502182013 | 15 | 299 | 3.2 | 11.3 | 0.00 | 0.00 | 0.00 | 35 | 1015.5 |
| 20260502181528 | 15 | 287 | 4.8 | 14.5 | 0.00 | 0.00 | 0.00 | 38 | 1015.7 |
| 20260502181010 | 14 | 311 | 6.4 | 17.7 | 0.00 | 0.00 | 0.00 | 40 | 1015.9 |
| 20260502180509 | 15 | 316 | 8.0 | 17.7 | 0.00 | 0.00 | 0.00 | 40 | 1015.8 |
| 20260502170509 | 13 | 307 | 6.4 | 16.1 | 0.00 | 0.00 | 0.00 | 41 | 1016.8 |
| 20260502164008 | 12 | 280 | 3.2 | 11.3 | 0.00 | 0.00 | 0.00 | 41 | 1017.0 |
| 20260502163507 | 12 | 299 | 4.8 | 11.3 | 0.00 | 0.00 | 0.00 | 41 | 1017.2 |
| 20260502163034 | 12 | 304 | 1.6 | 14.5 | 0.00 | 0.00 | 0.00 | 43 | 1017.3 |
| 20260502162510 | 12 | 269 | 6.4 | 14.5 | 0.00 | 0.00 | 0.00 | 43 | 1017.3 |
| 20260502162011 | 12 | 142 | 3.2 | 11.3 | 0.00 | 0.00 | 0.00 | 45 | 1017.4 |
| 20260502161525 | 12 | 302 | 3.2 | 14.5 | 0.00 | 0.00 | 0.00 | 44 | 1017.5 |
| 20260502161006 | 12 | 283 | 3.2 | 14.5 | 0.00 | 0.00 | 0.00 | 44 | 1017.5 |
| 20260502160511 | 12 | 338 | 8.0 | 19.3 | 0.00 | 0.00 | 0.00 | 44 | 1017.6 |
| 20260502152007 | 11 | 290 | 9.7 | 17.7 | 0.00 | 0.00 | 0.00 | 49 | 1018.0 |
| 20260502151528 | 11 | 333 | 6.4 | 14.5 | 0.00 | 0.00 | 0.00 | 51 | 1018.0 |
| 20260502151008 | 11 | 271 | 6.4 | 19.3 | 0.00 | 0.00 | 0.00 | 50 | 1018.0 |
| 20260502150509 | 10 | 311 | 8.0 | 19.3 | 0.00 | 0.00 | 0.00 | 52 | 1018.2 |
| 20260502130507 | 6 | 228 | 1.6 | 6.4 | 0.00 | 0.00 | 0.00 | 65 | 1018.6 |
| 20260502123512 | 5 | 258 | 0.0 | 6.4 | 0.00 | 0.00 | 0.00 | 66 | 1018.6 |
| 20260502123030 | 4 | 228 | 0.0 | 6.4 | 0.00 | 0.00 | 0.00 | 66 | 1018.5 |
| 20260502122510 | 4 | 262 | 1.6 | 8.0 | 0.00 | 0.00 | 0.00 | 66 | 1018.5 |
| 20260502122010 | 4 | 262 | 0.0 | 8.0 | 0.00 | 0.00 | 0.00 | 66 | 1018.7 |
| 20260502121527 | 3 | 200 | 0.0 | 4.8 | 0.00 | 0.00 | 0.00 | 66 | 1018.6 |
| 20260502121010 | 3 | 276 | 0.0 | 4.8 | 0.00 | 0.00 | 0.00 | 67 | 1018.6 |
| 20260502120506 | 3 | 241 | 0.0 | 6.4 | 0.00 | 0.00 | 0.00 | 67 | 1018.6 |
| 20260502115505 | 3 | 272 | 0.0 | 4.8 | 0.00 | 0.00 | 0.00 | 69 | 1018.5 |
| 20260502115011 | 2 | 255 | 0.0 | 4.8 | 0.00 | 0.00 | 0.00 | 69 | 1018.5 |
| 20260502114531 | 2 | 254 | 0.0 | 6.4 | 0.00 | 0.00 | 0.00 | 69 | 1018.3 |
| 20260502114007 | 2 | 239 | 0.0 | 6.4 | 0.00 | 0.00 | 0.00 | 69 | 1018.4 |
| 20260502113507 | 2 | 187 | 0.0 | 6.4 | 0.00 | 0.00 | 0.00 | 69 | 1018.5 |
| 20260502113029 | 2 | 221 | 0.0 | 3.2 | 0.00 | 0.00 | 0.00 | 69 | 1018.5 |
| 20260502112509 | 2 | 221 | 0.0 | 3.2 | 0.00 | 0.00 | 0.00 | 69 | 1018.5 |
| 20260502112010 | 2 | 233 | 0.0 | 3.2 | 0.00 | 0.00 | 0.00 | 69 | 1018.4 |
| 20260502111526 | 2 | 217 | 0.0 | 3.2 | 0.00 | 0.00 | 0.00 | 69 | 1018.3 |
| 20260502111010 | 2 | 248 | 0.0 | 4.8 | 0.00 | 0.00 | 0.00 | 69 | 1018.3 |
| 20260502110510 | 2 | 232 | 0.0 | 4.8 | 0.00 | 0.00 | 0.00 | 69 | 1018.3 |
| 20260502110026 | 2 | 233 | 0.0 | 4.8 | 0.00 | 0.00 | 0.00 | 68 | 1018.2 |
| 20260502105507 | 2 | 229 | 0.0 | 4.8 | 0.00 | 0.00 | 0.00 | 68 | 1018.2 |
| 20260502105002 | 2 | 233 | 0.0 | 4.8 | 0.00 | 0.00 | 0.00 | 68 | 1018.2 |
| 20260502104511 | 2 | 228 | 0.0 | 4.8 | 0.00 | 0.00 | 0.00 | 68 | 1018.2 |
| 20260502104002 | 2 | 255 | 0.0 | 3.2 | 0.00 | 0.00 | 0.00 | 67 | 1018.2 |
| 20260502103507 | 2 | 252 | 0.0 | 3.2 | 0.00 | 0.00 | 0.00 | 67 | 1018.2 |
| 20260502103004 | 2 | 258 | 0.0 | 3.2 | 0.00 | 0.00 | 0.00 | 67 | 1018.2 |
| 20260502102504 | 2 | 267 | 0.0 | 3.2 | 0.00 | 0.00 | 0.00 | 66 | 1018.1 |
| 20260502102004 | 2 | 220 | 0.0 | 4.8 | 0.00 | 0.00 | 0.00 | 66 | 1018.2 |
| 20260502101508 | 2 | 248 | 0.0 | 4.8 | 0.00 | 0.00 | 0.00 | 66 | 1018.1 |
| 20260502101002 | 2 | 244 | 0.0 | 3.2 | 0.00 | 0.00 | 0.00 | 65 | 1018.1 |
| 20260502100502 | 2 | 250 | 0.0 | 3.2 | 0.00 | 0.00 | 0.00 | 65 | 1018.1 |
| 20260502091516 | 3 | 184 | 0.0 | 1.6 | 0.00 | 0.00 | 0.00 | 63 | 1018.2 |
| 20260502091003 | 3 | 246 | 0.0 | 1.6 | 0.00 | 0.00 | 0.00 | 62 | 1018.1 |
| 20260502090504 | 3 | 246 | 0.0 | 3.2 | 0.00 | 0.00 | 0.00 | 62 | 1018.1 |
| 20260502071520 | 4 | 252 | 0.0 | 3.2 | 0.00 | 0.00 | 0.00 | 60 | 1018.5 |
| 20260502071007 | 4 | 233 | 0.0 | 3.2 | 0.00 | 0.00 | 0.00 | 59 | 1018.5 |
| 20260502070507 | 4 | 258 | 0.0 | 1.6 | 0.00 | 0.00 | 0.00 | 60 | 1018.6 |
| 20260502070018 | 4 | 218 | 0.0 | 3.2 | 0.00 | 0.00 | 0.00 | 60 | 1018.6 |
| 20260502065507 | 4 | 245 | 0.0 | 3.2 | 0.00 | 0.00 | 0.00 | 61 | 1018.7 |
| 20260502065007 | 4 | 275 | 0.0 | 3.2 | 0.00 | 0.00 | 0.00 | 60 | 1018.7 |
| 20260502064537 | 4 | 231 | 0.0 | 1.6 | 0.00 | 0.00 | 0.00 | 60 | 1018.7 |
| 20260502064007 | 4 | 283 | 0.0 | 0.0 | 0.00 | 0.00 | 0.00 | 59 | 1018.7 |
| 20260502063507 | 4 | 283 | 0.0 | 1.6 | 0.00 | 0.00 | 0.00 | 59 | 1018.8 |
| 20260502063019 | 4 | 283 | 0.0 | 1.6 | 0.00 | 0.00 | 0.00 | 59 | 1018.7 |
| 20260502062507 | 4 | 283 | 0.0 | 0.0 | 0.00 | 0.00 | 0.00 | 58 | 1018.7 |
| 20260502062009 | 5 | 283 | 0.0 | 1.6 | 0.00 | 0.00 | 0.00 | 58 | 1018.7 |
| 20260502061519 | 5 | 255 | 0.0 | 1.6 | 0.00 | 0.00 | 0.00 | 58 | 1018.7 |
| 20260502061009 | 5 | 248 | 0.0 | 1.6 | 0.00 | 0.00 | 0.00 | 58 | 1018.6 |
| 20260502060507 | 5 | 237 | 0.0 | 1.6 | 0.00 | 0.00 | 0.00 | 58 | 1018.6 |
| 20260502060030 | 5 | 245 | 0.0 | 3.2 | 0.00 | 0.00 | 0.00 | 57 | 1018.6 |
| 20260502055507 | 5 | 246 | 0.0 | 3.2 | 0.00 | 0.00 | 0.00 | 57 | 1018.6 |
| 20260502055007 | 5 | 217 | 0.0 | 0.0 | 0.00 | 0.00 | 0.00 | 57 | 1018.6 |
| 20260502054526 | 5 | 217 | 0.0 | 1.6 | 0.00 | 0.00 | 0.00 | 56 | 1018.6 |
| 20260502054007 | 5 | 217 | 0.0 | 1.6 | 0.00 | 0.00 | 0.00 | 55 | 1018.6 |
| 20260502053513 | 5 | 217 | 0.0 | 0.0 | 0.00 | 0.00 | 0.00 | 55 | 1018.6 |
| 20260502053021 | 5 | 217 | 0.0 | 0.0 | 0.00 | 0.00 | 0.00 | 55 | 1018.6 |
| 20260502052507 | 5 | 217 | 0.0 | 0.0 | 0.00 | 0.00 | 0.00 | 55 | 1018.6 |
| 20260502052007 | 5 | 217 | 0.0 | 0.0 | 0.00 | 0.00 | 0.00 | 55 | 1018.6 |
| 20260502051516 | 5 | 216 | 0.0 | 0.0 | 0.00 | 0.00 | 0.00 | 54 | 1018.6 |
| 20260502051006 | 5 | 217 | 0.0 | 0.0 | 0.00 | 0.00 | 0.00 | 55 | 1018.7 |
| 20260502050508 | 5 | 240 | 0.0 | 1.6 | 0.00 | 0.00 | 0.00 | 55 | 1018.7 |
| 20260502050021 | 5 | 237 | 0.0 | 1.6 | 0.00 | 0.00 | 0.00 | 55 | 1018.7 |
| 20260502045508 | 5 | 224 | 0.0 | 1.6 | 0.00 | 0.00 | 0.00 | 55 | 1018.6 |
| 20260502045003 | 5 | 210 | 0.0 | 0.0 | 0.00 | 0.00 | 0.00 | 55 | 1018.6 |
| 20260502044507 | 5 | 212 | 0.0 | 1.6 | 0.00 | 0.00 | 0.00 | 55 | 1018.6 |
| 20260502044004 | 5 | 235 | 0.0 | 1.6 | 0.00 | 0.00 | 0.00 | 54 | 1018.7 |
| 20260502043504 | 5 | 239 | 0.0 | 1.6 | 0.00 | 0.00 | 0.00 | 54 | 1018.7 |
| 20260502043008 | 5 | 231 | 0.0 | 1.6 | 0.00 | 0.00 | 0.00 | 53 | 1018.7 |
| 20260502042503 | 6 | 248 | 0.0 | 1.6 | 0.00 | 0.00 | 0.00 | 53 | 1018.6 |
| 20260502042004 | 6 | 237 | 0.0 | 1.6 | 0.00 | 0.00 | 0.00 | 53 | 1018.6 |
| 20260502041512 | 6 | 230 | 0.0 | 1.6 | 0.00 | 0.00 | 0.00 | 53 | 1018.6 |
| 20260502041003 | 6 | 242 | 0.0 | 1.6 | 0.00 | 0.00 | 0.00 | 52 | 1018.6 |
| 20260502040506 | 6 | 239 | 0.0 | 1.6 | 0.00 | 0.00 | 0.00 | 52 | 1018.6 |
| 20260502040022 | 6 | 229 | 0.0 | 3.2 | 0.00 | 0.00 | 0.00 | 51 | 1018.6 |
| 20260502035507 | 6 | 221 | 0.0 | 3.2 | 0.00 | 0.00 | 0.00 | 51 | 1018.6 |
| 20260502035006 | 6 | 238 | 0.0 | 3.2 | 0.00 | 0.00 | 0.00 | 51 | 1018.5 |
| 20260502034524 | 6 | 256 | 0.0 | 3.2 | 0.00 | 0.00 | 0.00 | 50 | 1018.6 |
| 20260502034008 | 6 | 233 | 0.0 | 3.2 | 0.00 | 0.00 | 0.00 | 50 | 1018.7 |
| 20260502033504 | 7 | 226 | 0.0 | 1.6 | 0.00 | 0.00 | 0.00 | 51 | 1018.6 |
| 20260502033004 | 7 | 243 | 0.0 | 1.6 | 0.00 | 0.00 | 0.00 | 51 | 1018.6 |
| 20260502032504 | 7 | 247 | 0.0 | 3.2 | 0.00 | 0.00 | 0.00 | 52 | 1018.7 |
| 20260502032008 | 7 | 237 | 0.0 | 3.2 | 0.00 | 0.00 | 0.00 | 52 | 1018.7 |
| 20260502031508 | 7 | 238 | 0.0 | 3.2 | 0.00 | 0.00 | 0.00 | 52 | 1018.7 |
| 20260502031003 | 7 | 244 | 0.0 | 3.2 | 0.00 | 0.00 | 0.00 | 52 | 1018.7 |
| 20260502030504 | 7 | 238 | 1.6 | 3.2 | 0.00 | 0.00 | 0.00 | 53 | 1018.7 |
| 20260502030016 | 7 | 236 | 0.0 | 3.2 | 0.00 | 0.00 | 0.00 | 52 | 1018.7 |
| 20260502025507 | 7 | 241 | 0.0 | 3.2 | 0.00 | 0.00 | 0.00 | 51 | 1018.7 |
| 20260502025006 | 7 | 241 | 0.0 | 3.2 | 0.00 | 0.00 | 0.00 | 52 | 1018.6 |
| 20260502024519 | 7 | 232 | 0.0 | 3.2 | 0.00 | 0.00 | 0.00 | 52 | 1018.6 |
| 20260502024005 | 7 | 231 | 0.0 | 1.6 | 0.00 | 0.00 | 0.00 | 53 | 1018.7 |
| 20260502023506 | 8 | 219 | 0.0 | 1.6 | 0.00 | 0.00 | 0.00 | 52 | 1018.6 |
| 20260502023022 | 8 | 233 | 0.0 | 3.2 | 0.00 | 0.00 | 0.00 | 45 | 1018.7 |
| 20260502022507 | 8 | 230 | 0.0 | 3.2 | 0.00 | 0.00 | 0.00 | 42 | 1018.6 |
| 20260502022004 | 8 | 248 | 0.0 | 3.2 | 0.00 | 0.00 | 0.00 | 43 | 1018.6 |
| 20260502021503 | 8 | 229 | 0.0 | 3.2 | 0.00 | 0.00 | 0.00 | 43 | 1018.6 |
| 20260502021008 | 8 | 236 | 0.0 | 4.8 | 0.00 | 0.00 | 0.00 | 43 | 1018.6 |
| 20260502020509 | 8 | 210 | 0.0 | 4.8 | 0.00 | 0.00 | 0.00 | 46 | 1018.6 |
| 20260502020033 | 8 | 217 | 0.0 | 3.2 | 0.00 | 0.00 | 0.00 | 44 | 1018.5 |
| 20260502015504 | 8 | 276 | 0.0 | 4.8 | 0.00 | 0.00 | 0.00 | 46 | 1018.3 |
| 20260502015004 | 9 | 269 | 1.6 | 4.8 | 0.00 | 0.00 | 0.00 | 44 | 1018.3 |
| 20260502014516 | 9 | 257 | 1.6 | 4.8 | 0.00 | 0.00 | 0.00 | 42 | 1018.2 |
| 20260502014007 | 9 | 258 | 1.6 | 4.8 | 0.00 | 0.00 | 0.00 | 39 | 1018.1 |
| 20260502013507 | 10 | 269 | 1.6 | 4.8 | 0.00 | 0.00 | 0.00 | 40 | 1018.1 |
| 20260502013021 | 10 | 269 | 1.6 | 4.8 | 0.00 | 0.00 | 0.00 | 39 | 1018.1 |
| 20260502012507 | 10 | 293 | 3.2 | 6.4 | 0.00 | 0.00 | 0.00 | 40 | 1018.0 |
| 20260502012009 | 10 | 288 | 3.2 | 8.0 | 0.00 | 0.00 | 0.00 | 40 | 1018.1 |
| 20260502011522 | 10 | 307 | 3.2 | 8.0 | 0.00 | 0.00 | 0.00 | 41 | 1018.0 |
| 20260502011010 | 10 | 292 | 3.2 | 6.4 | 0.00 | 0.00 | 0.00 | 41 | 1018.0 |
| 20260502010508 | 10 | 290 | 1.6 | 9.7 | 0.00 | 0.00 | 0.00 | 42 | 1018.0 |
| 20260502010017 | 10 | 319 | 4.8 | 9.7 | 0.00 | 0.00 | 0.00 | 41 | 1018.0 |
| 20260502005508 | 11 | 321 | 6.4 | 11.3 | 0.00 | 0.00 | 0.00 | 42 | 1017.9 |
| 20260502005004 | 11 | 322 | 4.8 | 17.7 | 0.00 | 0.00 | 0.00 | 46 | 1017.9 |
| 20260502004524 | 11 | 290 | 6.4 | 17.7 | 0.00 | 0.00 | 0.00 | 41 | 1017.9 |
| 20260502004011 | 11 | 288 | 6.4 | 12.9 | 0.00 | 0.00 | 0.00 | 41 | 1017.9 |
| 20260502003507 | 11 | 316 | 4.8 | 11.3 | 0.00 | 0.00 | 0.00 | 40 | 1017.9 |
| 20260502003023 | 11 | 300 | 4.8 | 11.3 | 0.00 | 0.00 | 0.00 | 37 | 1017.8 |
| 20260502002506 | 11 | 319 | 4.8 | 9.7 | 0.00 | 0.00 | 0.00 | 42 | 1017.8 |
| 20260502002007 | 11 | 307 | 4.8 | 9.7 | 0.00 | 0.00 | 0.00 | 41 | 1017.9 |
| 20260502001524 | 11 | 331 | 6.4 | 11.3 | 0.00 | 0.00 | 0.00 | 41 | 1017.9 |
| 20260502001007 | 11 | 360 | 6.4 | 11.3 | 0.00 | 0.00 | 0.00 | 46 | 1017.8 |
| 20260502000507 | 11 | 1 | 4.8 | 11.3 | 0.00 | 0.00 | 0.00 | 40 | 1017.8 |
| 20260502000027 | 11 | 2 | 3.2 | 11.3 | 0.00 | 0.00 | 0.00 | 43 | 1017.8 |
| 20260501235508 | 11 | 333 | 6.4 | 11.3 | 0.00 | 0.00 | 0.00 | 40 | 1017.7 |
| 20260501235010 | 11 | 323 | 4.8 | 16.1 | 0.00 | 0.00 | 0.00 | 39 | 1017.8 |
| 20260501234511 | 11 | 349 | 8.0 | 16.1 | 0.00 | 0.00 | 0.00 | 42 | 1017.8 |
| 20260501234008 | 11 | 321 | 9.7 | 16.1 | 0.00 | 0.00 | 0.00 | 44 | 1017.8 |
| 20260501233507 | 11 | 285 | 6.4 | 16.1 | 0.00 | 0.00 | 0.00 | 38 | 1017.8 |
| 20260501233030 | 11 | 11 | 6.4 | 16.1 | 0.00 | 0.00 | 0.00 | 39 | 1017.8 |
| 20260501232509 | 12 | 288 | 9.7 | 16.1 | 0.00 | 0.00 | 0.00 | 40 | 1017.7 |
| 20260501232011 | 11 | 65 | 1.6 | 11.3 | 0.00 | 0.00 | 0.00 | 34 | 1017.6 |
| 20260501231528 | 11 | 345 | 1.6 | 8.0 | 0.00 | 0.00 | 0.00 | 40 | 1017.7 |
| 20260501231007 | 11 | 360 | 0.0 | 6.4 | 0.00 | 0.00 | 0.00 | 38 | 1017.7 |
| 20260501230509 | 11 | 360 | 3.2 | 9.7 | 0.00 | 0.00 | 0.00 | 40 | 1017.8 |
| 20260501230028 | 11 | 306 | 1.6 | 9.7 | 0.00 | 0.00 | 0.00 | 42 | 1017.9 |
| 20260501225510 | 10 | 331 | 4.8 | 9.7 | 0.00 | 0.00 | 0.00 | 43 | 1017.9 |
| 20260501225013 | 10 | 311 | 6.4 | 12.9 | 0.00 | 0.00 | 0.00 | 42 | 1017.9 |
| 20260501224525 | 10 | 324 | 9.7 | 16.1 | 0.00 | 0.00 | 0.00 | 44 | 1017.9 |
| 20260501224009 | 10 | 353 | 6.4 | 16.1 | 0.00 | 0.00 | 0.00 | 41 | 1017.8 |
| 20260501223503 | 11 | 339 | 8.0 | 14.5 | 0.00 | 0.00 | 0.00 | 46 | 1017.9 |
| 20260501223010 | 11 | 311 | 9.7 | 14.5 | 0.00 | 0.00 | 0.00 | 41 | 1017.8 |
| 20260501222506 | 11 | 316 | 4.8 | 16.1 | 0.00 | 0.00 | 0.00 | 37 | 1017.7 |
| 20260501222006 | 11 | 299 | 4.8 | 16.1 | 0.00 | 0.00 | 0.00 | 39 | 1017.9 |
| 20260501221518 | 11 | 333 | 9.7 | 14.5 | 0.00 | 0.00 | 0.00 | 42 | 1017.8 |
| 20260501221002 | 11 | 347 | 6.4 | 14.5 | 0.00 | 0.00 | 0.00 | 43 | 1017.8 |
| 20260501220509 | 11 | 316 | 6.4 | 12.9 | 0.00 | 0.00 | 0.00 | 43 | 1017.9 |
| 20260501220034 | 11 | 296 | 8.0 | 14.5 | 0.00 | 0.00 | 0.00 | 44 | 1017.9 |
| 20260501215504 | 11 | 333 | 8.0 | 19.3 | 0.00 | 0.00 | 0.00 | 41 | 1017.9 |
| 20260501215003 | 11 | 321 | 11.3 | 19.3 | 0.00 | 0.00 | 0.00 | 46 | 1017.9 |
| 20260501214508 | 11 | 360 | 4.8 | 11.3 | 0.00 | 0.00 | 0.00 | 38 | 1017.8 |
| 20260501214009 | 11 | 300 | 3.2 | 11.3 | 0.00 | 0.00 | 0.00 | 41 | 1017.8 |
| 20260501213503 | 11 | 331 | 4.8 | 11.3 | 0.00 | 0.00 | 0.00 | 42 | 1017.8 |